This is the latest recevied weather packets stored in our database for station/object KI6AOK. If no packets are shown the sender has not sent any weather packets the latest 10 day(s).
| Time | Temp. | Humidity | Pressure | Rain* | Wind** | Luminosity | Snow |
|---|---|---|---|---|---|---|---|
| 1777597980 | 18.89° C | 64% | 1011.9 hPa | 0 mm | - | 90 W/m² | - |
| 1777597679 | 19.44° C | 63% | 1011.6 hPa | 0 mm | - | 99 W/m² | - |
| 1777597375 | 19.44° C | 62% | 1011.6 hPa | 0 mm | - | 111 W/m² | - |
| 1777597071 | 19.44° C | 62% | 1011.5 hPa | 0 mm | - | 122 W/m² | - |
| 1777596768 | 19.44° C | 62% | 1011.4 hPa | 0 mm | - | 136 W/m² | - |
| 1777596463 | 19.44° C | 61% | 1011.5 hPa | 0 mm | - | 149 W/m² | - |
| 1777596161 | 20° C | 61% | 1011.6 hPa | 0 mm | - | 164 W/m² | - |
| 1777595858 | 20° C | 61% | 1011.6 hPa | 0 mm | - | 177 W/m² | - |
| 1777595553 | 20° C | 60% | 1011.5 hPa | 0 mm | - | 193 W/m² | - |
| 1777595249 | 20° C | 61% | 1011.5 hPa | 0 mm | - | 210 W/m² | - |
| 1777594945 | 20° C | 60% | 1011.2 hPa | 0 mm | - | 226 W/m² | - |
| 1777594641 | 20.56° C | 59% | 1011.3 hPa | 0 mm | - | 240 W/m² | - |
| 1777594339 | 20° C | 60% | 1011.2 hPa | 0 mm | - | 260 W/m² | - |
| 1777594034 | 20° C | 61% | 1011.5 hPa | 0 mm | - | 275 W/m² | - |
| 1777593730 | 20° C | 60% | 1011.6 hPa | 0 mm | - | 292 W/m² | - |
| 1777593426 | 20.56° C | 59% | 1011.6 hPa | 0 mm | - | 308 W/m² | - |
| 1777593125 | 20.56° C | 59% | 1011.6 hPa | 0 mm | - | 325 W/m² | - |
| 1777592824 | 20.56° C | 59% | 1011.6 hPa | 0 mm | - | 342 W/m² | - |
| 1777592521 | 20.56° C | 56% | 1011.6 hPa | 0 mm | - | 362 W/m² | - |
| 1777592216 | 20.56° C | 58% | 1011.6 hPa | 0 mm | - | 380 W/m² | - |
| 1777591913 | 20.56° C | 59% | 1011.5 hPa | 0 mm | - | 399 W/m² | - |
| 1777591609 | 20.56° C | 58% | 1011.5 hPa | 0 mm | - | 415 W/m² | - |
| 1777591305 | 21.11° C | 58% | 1011.5 hPa | 0 mm | - | 434 W/m² | - |
| 1777591002 | 21.11° C | 57% | 1011.6 hPa | 0 mm | - | 454 W/m² | - |
| 1777590702 | 21.11° C | 58% | 1011.6 hPa | 0 mm | - | 468 W/m² | - |
* Rain latest hour (hover to see other rain measurements)
** Current wind speed in m/s (hover to see current wind gust speed)